Regional Weather Roundup
Issued by NWS Albany, NY

Home | Current Version | Previous Version | Text Only | Print | Product List | Glossary On
Versions: 1 2 3 4 5 6 7 8 9 10 11 12 13 14 15 16 17 18 19 20 21 22 23 24 25 26 27 28 29 30 31 32 33 34 35 36 37 38 39 40 41 42 43 44 45 46 47 48 49 50
000
ASUS41 KALY 191810
RWRALY

NEW YORK STATE HOURLY WEATHER ROUNDUP
NATIONAL WEATHER SERVICE ALBANY NY
200 PM EDT SUN APR 19 2015

NOTE: "FAIR" INDICATES FEW OR NO CLOUDS BELOW 12,000 FEET WITH NO
SIGNIFICANT WEATHER AND/OR NO OBSTRUCTIONS TO VISIBILITY.

NYZ032-033-038>043-046>054-057>066-NYZ062>081-191900-
EAST


CITY           SKY/WX    TMP DP  RH WIND       PRES   REMARKS
ALBANY         PTSUNNY   58  29  33 N5        30.23F
GLENS FALLS    SUNNY     55  29  36 VRB7      30.24F
POUGHKEEPSIE   PTSUNNY   61  32  33 VRB6      30.20F
NEWBURGH       MOSUNNY   61  34  36 E7        30.22F
MONTGOMERY     MOSUNNY   62  30  29 W5        30.20F
WHITE PLAINS   MOSUNNY   57  28  33 SE7       30.22F
ISLIP          PTSUNNY   55  33  43 SE15      30.25S
NEW YORK CITY  PTSUNNY   58  34  40 S14G21    30.24F
CENTRAL PARK   SUNNY     58  33  39 MISG      30.26F
$$

NYZ005>009-017-018-044>046-055-056-191900-
CENTRAL


CITY           SKY/WX    TMP DP  RH WIND       PRES   REMARKS
FULTON         MOSUNNY   59  25  27 E9        30.17F
SYRACUSE       PTSUNNY   60  31  33 E9G18     30.16F
ROME           SUNNY     59  27  29 SE13      30.21F
ELMIRA         SUNNY     64  20  18 E9        30.10F
BINGHAMTON     MOSUNNY   61  23  23 SE13      30.13F
MONTICELLO     MOSUNNY   59  25  27 SE7       30.19F
$$

NYZ026>034-041>043-191900-
NORTH


CITY           SKY/WX    TMP DP  RH WIND       PRES   REMARKS
WATERTOWN      SUNNY     58  28  32 MISG      30.19F
FORT DRUM      NOT AVBL
MASSENA        SUNNY     52  27  38 NE10      30.28F
SARANAC LAKE   SUNNY     51  18  27 MISG      30.20F
PLATTSBURGH    SUNNY     49  20  31 VRB6      30.29F
$$

NYZ001>004-010>016-019>021-191900-
WEST


CITY           SKY/WX    TMP DP  RH WIND       PRES   REMARKS
NIAGARA FALLS  PTSUNNY   60  35  39 E17G24    30.05F
BUFFALO        PTSUNNY   61  33  35 NE18G24   30.05F
DUNKIRK        MOSUNNY   70  32  24 E12G24    29.98F
JAMESTOWN      MOSUNNY   64  30  27 SE14      29.99F
WELLSVILLE     SUNNY     65  24  21 SE13G21   30.07F
ROCHESTER      CLOUDY    54  34  46 NE18      30.12F
PENN YAN       MOSUNNY   60  32  34 NE9       30.13F
$$

             KEY
       WCI = WIND CHILL INDEX
       VSB = VISIBILITY
       HX  = HEAT INDEX
$$


USA.gov is the U.S. government's official web portal to all federal, state and local government web resources and services.